Resolute,

11:23 PM CST on November 18, 2017 (GMT -0600)
Resolute

Weather History for CYRB - April, 2013

Change the Weather History Date:

Monday, April 1, 2013

  Actual Average Record
Temperature  
Mean Temperature -25 °F -  
Max Temperature -22 °F -3 °F 12 °F (2012)
Min Temperature -28 °F -16 °F -32 °F (2002)
Degree Days  
Heating Degree Days 90    
Moisture  
Dew Point -34 °F    
Average Humidity 61    
Maximum Humidity 69    
Minimum Humidity 42    
Precipitation  
Precipitation 0.00 in 0.01 in - ()
Sea Level Pressure  
Sea Level Pressure 30.13 in    
Wind  
Wind Speed 6 mph ()    
Max Wind Speed 15 mph    
Max Gust Speed -    
Visibility 14.8 miles    
Events Snow    
Averages and records for this station are not official NWS values.
T = Trace of Precipitation, MM = Missing Value Source: Averaged Metar Reports

Daily Weather History Graph

Daily Weather History Graph

Search for Another Location

Airport or City:

Trip Planner

Search our weather history database for the weather conditions in past years. The results will help you decide how hot, cold, wet, or windy it might be!

Date:

Astronomy

Apr. 01, 2013 Rise Set
Actual Time 6:00 AM CDT 8:50 PM CDT
Civil Twilight 4:26 AM CDT 10:26 PM CDT
Nautical Twilight 1:56 AM CDT Sun does not rise
Astronomical Twilight Sun does not rise Sun does not rise
Moon No Moon Rise No Moon Set
Length of Visible Light 17h 59m
Length of Day
14h 50m
Waning Gibbous, 67% of the Moon is Illuminated
Apr 1
Waning Gibbous
Apr 2
Last Quarter
Apr 10
New
Apr 18
First Quarter
Apr 25
Full

Hourly Weather History & Observations

Time (CDT) Temp. Windchill Dew Point Humidity Pressure Visibility Wind Dir Wind Speed Gust Speed Precip Events Conditions
12:00 AM -22.0 °F -47.5 °F -31.0 °F 63% 30.14 in 15.0 mi NW 15.0 mph - N/A   Scattered Clouds
1:00 AM -23 °F - -32 °F 47% 30.13 in 15 mi NW 11.5 mph - - Snow Snow
1:00 AM -23.8 °F -46.9 °F -31.0 °F 69% 30.13 in 15.0 mi NW 11.5 mph - N/A   Partly Cloudy
2:00 AM -23.8 °F -45.8 °F -32.8 °F 63% 30.13 in 15.0 mi North 10.4 mph - N/A   Partly Cloudy
3:00 AM -25.6 °F -41.9 °F -34.6 °F 63% 30.13 in 15.0 mi NW 5.8 mph - N/A   Partly Cloudy
4:00 AM -25.6 °F -45.4 °F -34.6 °F 63% 30.14 in 15.0 mi North 8.1 mph - N/A   Partly Cloudy
5:00 AM -27.4 °F -41.9 °F -36.4 °F 62% 30.14 in 15.0 mi NW 4.6 mph - N/A   Partly Cloudy
6:00 AM -27.4 °F -41.9 °F -36.4 °F 62% 30.14 in 15.0 mi NW 4.6 mph - N/A   Partly Cloudy
7:00 AM -28 °F - -37 °F 42% 30.14 in 15 mi NW 5.8 mph - - Snow Snow
7:00 AM -27.4 °F -44.1 °F -36.4 °F 62% 30.14 in 15.0 mi NW 5.8 mph - N/A   Partly Cloudy
8:00 AM -27.4 °F -44.1 °F -34.6 °F 69% 30.14 in 15.0 mi North 5.8 mph - N/A   Partly Cloudy
9:00 AM -25.6 °F -41.9 °F -34.6 °F 63% 30.14 in 15.0 mi North 5.8 mph - N/A   Partly Cloudy
10:00 AM -27.4 °F -44.1 °F -36.4 °F 62% 30.13 in 15.0 mi North 5.8 mph - N/A   Partly Cloudy
11:00 AM -25.6 °F - -34.6 °F 63% 30.13 in 15.0 mi Calm Calm - N/A   Partly Cloudy
12:00 PM -25.6 °F - -32.8 °F 69% 30.12 in 10.0 mi Calm Calm - N/A   Scattered Clouds
1:00 PM -24 °F - -33 °F 45% 30.12 in 15 mi North 5.8 mph - - Snow Snow
1:00 PM -23.8 °F -39.8 °F -32.8 °F 63% 30.12 in 15.0 mi North 5.8 mph - N/A   Scattered Clouds
2:00 PM -23.8 °F - -32.8 °F 63% 30.12 in 15.0 mi Calm Calm - N/A   Mostly Cloudy
2:46 PM - - - N/A% - 15.0 mi North 5.8 mph - N/A   Partly Cloudy
3:00 PM -23.8 °F -39.8 °F -31.0 °F 69% 30.12 in 15.0 mi North 5.8 mph - N/A   Partly Cloudy
4:00 PM -22.0 °F -33.0 °F -31.0 °F 63% 30.12 in 15.0 mi NW 3.5 mph - N/A   Partly Cloudy
5:00 PM -22.0 °F -33.0 °F -31.0 °F 63% 30.12 in 15.0 mi NW 3.5 mph - N/A   Partly Cloudy
6:00 PM -23.8 °F -35.0 °F -32.8 °F 63% 30.12 in 15.0 mi NW 3.5 mph - N/A   Partly Cloudy
7:00 PM -24 °F - -33 °F 45% 30.12 in 15 mi NW 2.3 mph - -   Partly Cloudy
7:00 PM -23.8 °F -35.0 °F -32.8 °F 63% 30.12 in 15.0 mi NW 3.5 mph - N/A   Partly Cloudy
8:00 PM -23.8 °F - -32.8 °F 63% 30.12 in 15.0 mi Calm Calm - N/A   Partly Cloudy
9:00 PM -25.6 °F - -32.8 °F 69% 30.11 in 15.0 mi Calm Calm - N/A   Partly Cloudy
10:00 PM -23.8 °F - -32.8 °F 63% 30.11 in 15.0 mi Calm Calm - N/A   Partly Cloudy
11:00 PM -25.6 °F - -34.6 °F 63% 30.10 in 15.0 mi Calm Calm - N/A   Partly Cloudy